KE7JVX-3 Weather Reports


Display with metric or nautical units.
time (UTC)temp
F
wind
direction
speed
MPH
gust
MPH
rain 1hr
in
rain 24hr
in
rain mn
in
humidity
%
barometer
mb
20260831220408 54 222 6.0 10.0 0.00 0.54 0.54 62 1016.1
20260831215408 53 187 6.0 12.0 0.00 0.54 0.54 58 1016.3
20260831214408 54 216 8.0 12.0 0.01 0.54 0.54 59 1016.4
20260831213408 54 220 7.0 16.0 0.02 0.54 0.54 57 1016.5
20260831212408 53 219 7.0 16.0 0.02 0.54 0.54 57 1016.6
20260831211410 53 209 7.0 12.0 0.03 0.54 0.54 58 1016.8
20260831210409 53 221 7.0 13.0 0.04 0.54 0.54 56 1017.0
20260831205408 53 215 1.0 11.0 0.05 0.54 0.54 59 1017.2
20260831204409 53 302 1.0 4.0 0.05 0.53 0.53 55 1017.3
20260831203410 52 294 5.0 16.0 0.04 0.52 0.52 57 1017.6
20260831202408 51 303 12.0 17.0 0.04 0.52 0.52 62 1017.7
20260831201414 50 302 11.0 17.0 0.04 0.51 0.51 65 1017.8
20260831200408 50 298 10.0 24.0 0.04 0.50 0.50 66 1017.8
20260831195409 50 297 14.0 25.0 0.05 0.49 0.49 66 1017.7
20260831194410 51 285 18.0 25.0 0.05 0.48 0.48 64 1017.8
20260831193410 50 287 17.0 24.0 0.05 0.48 0.48 69 1017.9
20260831192409 50 271 16.0 21.0 0.05 0.48 0.48 70 1017.9
20260831191408 49 276 14.0 18.0 0.04 0.47 0.47 73 1017.8
20260831190416 50 266 12.0 17.0 0.03 0.46 0.46 72 1017.9
20260831185411 50 250 12.0 18.0 0.01 0.44 0.44 69 1018.0
20260831184408 51 266 10.0 18.0 0.00 0.43 0.43 69 1018.0
20260831183412 52 263 10.0 15.0 0.00 0.43 0.43 66 1017.9
20260831182409 52 262 13.0 16.0 0.00 0.43 0.43 65 1018.0
20260831181410 52 276 10.0 15.0 0.01 0.43 0.43 66 1018.1
20260831180412 51 318 5.0 15.0 0.01 0.43 0.43 68 1018.0
20260831175409 51 311 9.0 14.0 0.01 0.43 0.43 68 1018.0
20260831174411 51 316 6.0 10.0 0.01 0.43 0.43 72 1018.2
20260831173408 51 331 2.0 6.0 0.01 0.43 0.43 75 1018.2
20260831172408 51 321 4.0 9.0 0.01 0.43 0.43 74 1018.1
20260831171411 51 334 3.0 10.0 0.00 0.42 0.42 74 1018.0
20260831170409 53 300 8.0 12.0 0.00 0.42 0.42 67 1017.9
20260831165408 54 324 4.0 9.0 0.00 0.42 0.42 57 1017.8
20260831164409 54 326 3.0 14.0 0.00 0.42 0.42 57 1017.6
20260831163409 55 309 5.0 9.0 0.00 0.42 0.42 56 1017.3
20260831162409 54 291 8.0 14.0 0.01 0.42 0.42 53 1017.2
20260831161408 52 289 5.0 10.0 0.03 0.42 0.42 63 1016.9
20260831160409 51 12 2.0 7.0 0.05 0.42 0.42 65 1016.9
20260831155412 51 13 4.0 10.0 0.07 0.42 0.42 63 1016.8
20260831154408 50 333 5.0 10.0 0.08 0.42 0.42 62 1016.8
20260831153407 50 47 2.0 6.0 0.10 0.42 0.42 66 1017.0
20260831152408 51 280 1.0 7.0 0.12 0.41 0.41 61 1017.3
20260831151408 51 258 2.0 9.0 0.14 0.39 0.39 64 1017.9
20260831150408 50 303 4.0 7.0 0.17 0.37 0.37 66 1017.7
20260831145412 50 256 2.0 8.0 0.18 0.35 0.35 75 1017.9
20260831144407 49 287 6.0 8.0 0.19 0.34 0.34 77 1017.7
20260831143408 50 239 5.0 9.0 0.19 0.32 0.32 77 1017.9
20260831142408 51 224 6.0 10.0 0.17 0.29 0.29 77 1017.7
20260831141409 51 220 7.0 12.0 0.15 0.25 0.25 77 1017.8
20260831140408 51 219 8.0 13.0 0.12 0.20 0.20 77 1017.7
20260831135407 51 218 7.0 12.0 0.10 0.17 0.17 76 1017.5
20260831134408 51 219 6.0 10.0 0.08 0.15 0.15 76 1017.5
20260831133407 51 200 2.0 10.0 0.06 0.13 0.13 76 1017.3
20260831132410 52 197 3.0 6.0 0.05 0.12 0.12 75 1017.1
20260831131407 52 200 2.0 8.0 0.03 0.10 0.10 74 1017.0
20260831130409 52 212 1.0 11.0 0.01 0.08 0.08 71 1016.7
20260831125408 52 186 3.0 10.0 0.00 0.07 0.07 74 1016.7
20260831124408 52 136 6.0 9.0 0.00 0.07 0.07 73 1016.6
20260831123408 52 154 2.0 11.0 0.01 0.07 0.07 71 1016.3
20260831122407 53 147 4.0 10.0 0.03 0.07 0.07 65 1016.2
20260831121407 54 262 8.0 16.0 0.07 0.07 0.07 59 1016.1
20260831120407 54 291 13.0 24.0 0.07 0.07 0.07 59 1015.9
20260831115408 53 285 18.0 25.0 0.07 0.07 0.07 62 1015.7
20260831114408 53 302 13.0 18.0 0.07 0.07 0.07 63 1015.5
20260831113408 53 292 13.0 22.0 0.06 0.06 0.06 63 1015.5
20260831112407 53 289 18.0 24.0 0.04 0.04 0.04 66 1015.5
20260831111407 55 271 15.0 20.0 0.00 0.00 0.00 61 1015.7
20260831110407 56 305 12.0 17.0 0.00 0.00 0.00 57 1015.6
20260831105409 56 321 8.0 13.0 0.00 0.00 0.00 62 1015.7
20260831104408 56 309 5.0 11.0 0.00 0.00 0.00 63 1015.8
20260831103408 56 342 3.0 12.0 0.00 0.00 0.00 67 1015.8
20260831102408 55 18 1.0 11.0 0.00 0.00 0.00 68 1015.7
20260831101411 54 33 5.0 12.0 0.00 0.00 0.00 70 1015.6
20260831100411 54 32 4.0 11.0 0.00 0.00 0.00 73 1015.6
20260831095407 55 44 6.0 14.0 0.00 0.00 0.00 74 1015.5
20260831094108 56 337 4.0 16.0 0.00 0.00 0.00 72 1015.5
20260831093106 58 271 9.0 12.0 0.00 0.00 0.00 63 1015.8
20260831092106 60 284 6.0 13.0 0.00 0.00 0.00 58 1015.7
20260831091106 59 300 4.0 10.0 0.00 0.00 0.00 58 1015.7
20260831090106 60 301 4.0 8.0 0.00 0.00 0.00 57 1015.7
20260831085106 60 286 3.0 7.0 0.00 0.00 0.00 56 1015.6
20260831084106 61 277 1.0 6.0 0.00 0.00 0.00 54 1015.8
20260831083106 61 233 2.0 4.0 0.00 0.00 0.00 53 1015.8
20260831082106 61 0 0.0 0.0 0.00 0.00 0.00 55 1015.9
20260831081106 61 0 0.0 0.0 0.00 0.00 0.00 54 1015.9
20260831080106 60 0 0.0 2.0 0.00 0.00 0.00 54 1016.0
20260831075106 59 345 2.0 7.0 0.00 0.00 0.00 58 1015.9
20260831074106 59 328 2.0 8.0 0.00 0.00 0.00 58 1015.9
20260831073106 60 319 4.0 8.0 0.00 0.00 0.00 56 1016.1
20260831072109 61 328 2.0 5.0 0.00 0.00 0.00 53 1016.2
20260831071106 61 311 3.0 7.0 0.00 0.00 0.00 52 1016.3
20260831070106 61 0 0.0 0.0 0.00 0.00 0.00 51 1016.3
20260831065109 61 0 0.0 3.0 0.00 0.01 0.00 52 1016.4
20260831064106 60 0 0.0 6.0 0.00 0.02 0.00 55 1016.3
20260831063106 59 327 1.0 11.0 0.00 0.05 0.00 57 1016.3
20260831062106 59 332 3.0 8.0 0.00 0.05 0.00 59 1016.2
20260831061106 59 316 2.0 6.0 0.00 0.06 0.00 59 1016.2
20260831060106 59 0 0.0 10.0 0.00 0.08 0.00 60 1016.0
20260831055106 58 325 5.0 13.0 0.00 0.10 0.00 62 1016.1
20260831054109 58 315 8.0 17.0 0.00 0.11 0.00 63 1016.2
20260831053108 59 309 10.0 17.0 0.00 0.13 0.00 63 1016.1
20260831052109 61 306 9.0 18.0 0.00 0.15 0.00 57 1016.1
20260831051106 62 302 8.0 13.0 0.00 0.18 0.00 50 1016.2
20260831050109 62 305 8.0 13.0 0.00 0.19 0.00 51 1016.4
20260831045107 62 307 9.0 13.0 0.00 0.23 0.00 51 1016.4
20260831044107 62 303 9.0 13.0 0.00 0.37 0.00 50 1016.4
20260831043106 62 299 7.0 13.0 0.00 0.38 0.00 50 1016.5
20260831042106 62 307 8.0 12.0 0.00 0.41 0.00 50 1016.5
20260831041106 62 305 9.0 12.0 0.00 0.59 0.00 50 1016.5
20260831040108 62 306 8.0 11.0 0.00 0.79 0.00 50 1016.5
20260831035106 62 305 7.0 10.0 0.00 0.83 0.00 49 1016.5
20260831034106 62 315 4.0 10.0 0.00 0.86 0.00 49 1016.5
20260831033106 62 299 6.0 9.0 0.00 1.04 0.00 49 1016.4
20260831032109 62 299 7.0 10.0 0.00 1.05 0.00 49 1016.3
20260831031107 62 306 7.0 10.0 0.00 1.05 0.00 48 1016.2
20260831030106 62 301 7.0 10.0 0.00 1.05 0.00 48 1016.1
20260831025106 62 309 5.0 8.0 0.00 1.05 0.00 49 1016.1
20260831024106 62 306 6.0 9.0 0.00 1.05 0.00 49 1015.9
20260831023106 62 308 5.0 9.0 0.00 1.05 0.00 47 1015.8
20260831022106 62 314 5.0 10.0 0.00 1.05 0.00 48 1015.5
20260831021106 62 306 7.0 10.0 0.00 1.05 0.00 48 1015.5
20260831020106 62 311 5.0 8.0 0.00 1.05 0.00 49 1015.4
20260831015106 63 312 5.0 9.0 0.00 1.05 0.00 48 1015.4
20260831014106 63 310 4.0 8.0 0.00 1.05 0.00 48 1015.4
20260831013106 64 309 5.0 10.0 0.00 1.05 0.00 47 1015.3
20260831012106 64 304 7.0 11.0 0.00 1.05 0.00 47 1015.2
20260831011107 63 288 7.0 14.0 0.00 1.05 0.00 49 1015.2
20260831010109 64 281 7.0 15.0 0.00 1.05 0.00 49 1015.3
20260831005106 65 289 7.0 14.0 0.00 1.05 0.00 46 1015.3
20260831004107 65 285 10.0 16.0 0.00 1.05 0.00 45 1015.3
20260831003106 66 288 7.0 17.0 0.00 1.05 0.00 46 1015.4
20260831002107 66 283 6.0 15.0 0.00 1.05 0.00 45 1015.3
20260831001107 66 282 5.0 13.0 0.00 1.05 0.00 45 1015.4
20260831000106 67 258 7.0 12.0 0.00 1.05 0.00 44 1015.3
20260830235106 67 279 10.0 16.0 0.00 1.05 0.00 42 1015.3
20260830234107 67 280 5.0 12.0 0.00 1.05 0.00 43 1015.4
20260830233106 66 277 7.0 15.0 0.00 1.05 0.00 43 1015.4
20260830231409 66 263 8.0 18.0 0.00 1.05 0.00 44 1015.6
20260830230409 67 260 8.0 13.0 0.00 1.05 1.08 42 1015.6
20260830225409 67 274 7.0 13.0 0.00 1.05 1.08 40 1015.8
20260830224409 67 286 5.0 13.0 0.00 1.05 1.08 41 1015.8
20260830223409 66 275 6.0 15.0 0.00 1.05 1.08 44 1016.0
20260830222410 67 202 2.0 12.0 0.00 1.05 1.08 42 1016.0
20260830221409 68 316 3.0 10.0 0.00 1.05 1.08 42 1016.1